Simultaneous Nadir Overpasses (SNOs) Predictions

Prediction of SNOs near equator between AQUA and NPP Satellite Orbit:

Table of predicted SNOs near equator for the next 14.0 days since TLE Epoch: 1/10/2020
Index Date (AQUA) Time (AQUA) AQUA Lat,Lon Date (NPP) Time (NPP) NPP Lat,Lon Distance(km) Time Diff (sec)
1 01/12/2020 00:14:36 25.47,-163.70 01/12/2020 00:04:36 25.50,-164.13 43.44 600
2 01/12/2020 00:57:33 -2.25, 9.16 01/12/2020 00:48:39 -2.15, 8.70 52.34 534
3 01/12/2020 01:45:49 -2.31, 177.75 01/12/2020 01:38:10 -2.45, 177.02 82.15 459
4 01/14/2020 16:25:35 5.48, -43.31 01/14/2020 16:15:47 5.42, -43.59 31.16 588
5 01/14/2020 17:13:41 -0.91, 125.32 01/14/2020 17:05:09 -0.79, 124.78 61.62 512
6 01/14/2020 18:01:57 -3.66, -66.09 01/14/2020 17:54:40 -3.81, -66.90 91.27 437
7 01/17/2020 08:41:43 4.14, 72.85 01/17/2020 08:32:17 4.06, 72.50 40.47 566
8 01/17/2020 09:29:49 0.43,-118.51 01/17/2020 09:21:39 0.56,-119.14 70.92 490
9 01/20/2020 00:15:50 -29.94, 15.18 01/20/2020 00:05:50 -30.38, 14.60 73.65 600
10 01/20/2020 00:57:51 2.81,-170.99 01/20/2020 00:48:47 2.71,-171.42 49.85 544
11 01/20/2020 01:45:57 1.76, -2.35 01/20/2020 01:38:09 1.91, -3.06 80.22 468
12 01/22/2020 16:25:41 -5.99, 136.60 01/22/2020 16:15:45 -5.95, 136.33 29.46 596
13 01/22/2020 17:13:58 1.49, -54.83 01/22/2020 17:05:16 1.36, -55.34 59.30 522
14 01/22/2020 18:02:04 3.08, 113.81 01/22/2020 17:54:38 3.26, 113.02 89.51 446




NCC Satellite Simultaneous Nadir Overpasses (SNOs) Prediction Service
